Weather History for Hyannis, MA

Change the Weather History Date:

Wednesday, April 17, 2013

  Actual Average Record
Temperature  
Mean Temperature 50 °F -  
Max Temperature 63 °F 53 °F 86 °F (2002)
Min Temperature 37 °F 38 °F 23 °F (1966)
Degree Days  
Heating Degree Days 15    
Moisture  
Dew Point 44 °F    
Average Humidity 76    
Maximum Humidity 100    
Minimum Humidity 32    
Precipitation  
Precipitation 0.01 in - - ()
Sea Level Pressure  
Sea Level Pressure 30.17 in    
Wind  
Wind Speed 14 mph (WSW)    
Max Wind Speed 30 mph    
Max Gust Speed 37 mph    
Visibility 10 miles    
Events Rain    
Averages and records for this station are not official NWS values.
T = Trace of Precipitation, MM = Missing Value Source: NWS Daily Summary

Daily Weather History Graph

Daily Weather History Graph

Search for Another Location

Airport:

Trip Planner

Search our weather history database for the weather conditions in past years. The results will help you decide how hot, cold, wet, or windy it might be!

Date:

Astronomy

Apr. 17, 2013 Rise Set
Actual Time 5:57 AM EDT 7:24 PM EDT
Civil Twilight 5:28 AM EDT 7:53 PM EDT
Nautical Twilight 4:53 AM EDT 8:28 PM EDT
Astronomical Twilight 4:16 AM EDT 9:05 PM EDT
Moon 11:06 AM EDT (4/17) 1:01 AM EDT (4/17)
Length of Visible Light 14h 24m
Length of Day
13h 26m
Waxing Crescent, 42% of the Moon is Illuminated
Apr 17
Waxing Crescent
Apr 18
First Quarter
Apr 25
Full
May 2
Last Quarter
May 9
New

Hourly Weather History & Observations

Time (EDT) Temp. Dew Point Humidity Pressure Visibility Wind Dir Wind Speed Gust Speed Precip Events Conditions
12:56 AM 52.0 °F 50.0 °F 93% 30.11 in 10.0 mi SW 21.9 mph 32.2 mph 0.00 in   Mostly Cloudy
1:56 AM 53.1 °F 50.0 °F 89% 30.10 in 10.0 mi SW 20.7 mph 27.6 mph N/A   Overcast
2:56 AM 55.9 °F 51.1 °F 84% 30.09 in 10.0 mi WSW 29.9 mph 36.8 mph 0.00 in   Overcast
3:45 AM 53.6 °F 51.8 °F 94% 30.10 in 7.0 mi SW 13.8 mph - 0.01 in Rain Light Rain
3:56 AM 53.1 °F 52.0 °F 96% 30.10 in 10.0 mi SW 15.0 mph - 0.01 in   Overcast
4:10 AM 53.6 °F 51.8 °F 94% 30.09 in 10.0 mi SW 16.1 mph - N/A   Overcast
4:25 AM 53.6 °F 53.6 °F 100% 30.09 in 10.0 mi WSW 15.0 mph - N/A   Overcast
4:56 AM 54.0 °F 52.0 °F 93% 30.08 in 10.0 mi WSW 16.1 mph - N/A   Overcast
5:38 AM 53.6 °F 51.8 °F 94% 30.10 in 10.0 mi West 11.5 mph - N/A   Overcast
5:56 AM 52.0 °F 51.1 °F 97% 30.09 in 10.0 mi WSW 10.4 mph - 0.00 in Rain Light Rain
6:56 AM 52.0 °F 51.1 °F 97% 30.11 in 9.0 mi WSW 4.6 mph - 0.00 in   Overcast
7:56 AM 53.1 °F 52.0 °F 96% 30.13 in 10.0 mi West 4.6 mph - N/A   Overcast
8:56 AM 55.0 °F 51.1 °F 86% 30.15 in 10.0 mi North 8.1 mph - N/A   Overcast
9:56 AM 53.1 °F 41.0 °F 64% 30.16 in 10.0 mi North 8.1 mph 18.4 mph N/A   Overcast
10:56 AM 55.0 °F 39.9 °F 57% 30.17 in 10.0 mi North 12.7 mph - N/A   Overcast
11:56 AM 57.9 °F 37.0 °F 46% 30.17 in 10.0 mi NNE 11.5 mph 20.7 mph N/A   Scattered Clouds
1:56 PM 60.1 °F 36.0 °F 41% 30.16 in 10.0 mi North 10.4 mph 20.7 mph N/A   Clear
2:56 PM 61.0 °F 34.0 °F 36% 30.16 in 10.0 mi NNE 13.8 mph 21.9 mph N/A   Clear
3:56 PM 61.0 °F 30.9 °F 32% 30.18 in 10.0 mi North 11.5 mph - N/A   Clear
4:56 PM 55.9 °F 39.9 °F 55% 30.19 in 10.0 mi South 5.8 mph - N/A   Clear
5:56 PM 52.0 °F 39.0 °F 61% 30.22 in 10.0 mi South 6.9 mph - N/A   Clear
6:56 PM 50.0 °F 37.0 °F 61% 30.25 in 10.0 mi South 3.5 mph - N/A   Clear
7:56 PM 48.0 °F 36.0 °F 63% 30.27 in 10.0 mi SSW 4.6 mph - N/A   Clear
8:56 PM 46.0 °F 37.9 °F 73% 30.30 in 10.0 mi Calm Calm - N/A   Clear
9:56 PM 41.0 °F 36.0 °F 82% 30.31 in 10.0 mi Calm Calm - N/A   Clear
10:56 PM 39.0 °F 35.1 °F 86% 30.32 in 10.0 mi Calm Calm - N/A   Clear
11:56 PM 37.0 °F 34.0 °F 89% 30.32 in 10.0 mi Calm Calm - N/A   Clear